Location: Goettingen
(51.5300°N, 9.9433°E)
Time: 14:41:02
(UTC+02:00)

ISS - Pass Details

Date: 01 October 2022
Orbit: 414 x 417 km, 51.6° (Epoch: 28 September)

Event Time Altitude Azimuth Distance (km) Brightness Sun altitude
Rises 20:29:10 0° 283° (WNW) 2,362 2.0 -14.9°
Reaches altitude 10° 20:31:27 10° 271° (W) 1,496 0.3 -15.2°
Maximum altitude 20:34:19 26° 212° (SSW) 853 -2.0 -15.7°
Enters shadow 20:36:02 17° 167° (SSE) 1,126 -1.9 -15.9°
